This demonstration page uses our WeatherBlox Daily Observations layout. Learn more.

Left ArrowRight Arrow

47.50024, -111.30081

Hourly Observations for May 13, 2019

Temp ( °F °C ) Dew Point ( °F °C ) Humidity (%) Winds ( mph kmh ) Pressure ( in mb ) Visibility ( mi km ) Precip ( " mm )
12:53 am 00:53 Clear 54 12.2 39 3.9 57 57 SW 10 17 29.71 1006 10 16 0.00 0.00
1:53 am 01:53 Clear 51 10.6 39 3.9 64 64 WSW 9 15 29.72 1007 10 16 0.00 0.00
2:53 am 02:53 Clear 51 10.6 40 4.4 66 66 WSW 12 19 29.72 1006 10 16 0.00 0.00
3:53 am 03:53 Clear 56 13.3 40 4.4 55 55 SW 9 15 29.72 1006 10 16 0.00 0.00
4:53 am 04:53 Clear 53 11.7 40 4.4 61 61 W 6 9 29.74 1007 10 16 0.00 0.00
5:53 am 05:53 Sunny 51 10.6 39 3.9 64 64 SW 10 17 29.75 1008 10 16 0.00 0.00
6:53 am 06:53 Sunny 55 12.8 39 3.9 55 55 SW 10 17 29.75 1008 10 16 0.00 0.00
7:53 am 07:53 Sunny 59 15 40 4.4 49 49 SW 12 19 29.77 1008 10 16 0.00 0.00
8:53 am 08:53 Sunny 66 18.9 39 3.9 37 37 WSW 18 30 29.77 1008 10 16 0.00 0.00
9:53 am 09:53 Sunny 69 20.6 36 2.2 30 30 W 18 30 29.78 1008 10 16 0.00 0.00
10:53 am 10:53 Sunny 71 21.7 36 2.2 28 28 W 20 31 29.77 1008 10 16 0.00 0.00
11:53 am 11:53 Sunny 72 22.2 35 1.7 26 26 WNW 17 28 29.77 1008 10 16 0.00 0.00
12:53 pm 12:53 Sunny 73 22.8 35 1.7 25 25 VRB 6 9 29.76 1008 10 16 0.00 0.00
1:53 pm 13:53 Sunny 74 23.3 35 1.7 24 24 WSW 12 19 29.76 1008 10 16 0.00 0.00
2:53 pm 14:53 Sunny 75 23.9 30 -1.1 19 19 W 9 15 29.75 1008 10 16 0.00 0.00
3:53 pm 15:53 Sunny 77 25 34 1.1 21 21 WSW 17 28 29.73 1007 10 16 0.00 0.00
4:53 pm 16:53 Sunny 76 24.4 32 0 20 20 W 15 24 29.74 1007 10 16 0.00 0.00
5:53 pm 17:53 Sunny 75 23.9 30 -1.1 19 19 WNW 10 17 29.75 1007 10 16 0.00 0.00
6:53 pm 18:53 Sunny 75 23.9 30 -1.1 19 19 NNW 8 13 29.73 1007 10 16 0.00 0.00
7:53 pm 19:53 Sunny 68 20 42 5.6 39 39 Calm 29.74 1007 10 16 0.00 0.00
8:35 pm 20:35 Sunny 66 18.9 39 3.9 37 37 ENE 13 20 29.67 1005 10 16 0.00 0.00
8:53 pm 20:53 Clear 66 18.9 40 4.4 39 39 E 12 19 29.76 1008 10 16 0.00 0.00
9:53 pm 21:53 Clear 62 16.7 43 6.1 50 50 E 10 17 29.78 1008 10 16 0.00 0.00
10:53 pm 22:53 Clear 58 14.4 44 6.7 60 60 NE 10 17 29.79 1009 10 16 0.00 0.00
11:53 pm 23:53 Clear 58 14.4 45 7.2 62 62 ENE 12 19 29.80 1009 10 16 0.00 0.00

Powered by AerisWeather